When you browse on this site, cookies collect data to enhance your experience and personalize the content and advertising you see.
Visit our Privacy Policy to learn more. By continuing to use the site, you agree to this use of cookies and data.
  • In Österreich
  • Länderverzeichnis
  • Für 7 Tage
  • Wassertemperatur
  • Wetterkarte
  • News
  • Widgets
  • user-avatar
    Anmelden

    Stündliche Wetter Ricaurte

    Heute, 27 Februar, Donnerstag

    Zeit Temperatur Niederschläge Wind Luftdruck Luftfeuchtigkeit
    00:00 +24°C° 0.1 mm 0 m/S 737 mmHg 89%
    01:00 +23°C° 0.1 mm 0 m/S 737 mmHg 90%
    02:00 +23°C° 0.2 mm 0 m/S 737 mmHg 90%
    03:00 +23°C° 0.2 mm 0 m/S 737 mmHg 90%
    04:00 +23°C° 0.2 mm 0 m/S 736 mmHg 91%
    05:00 +23°C° 0.2 mm 0 m/S 737 mmHg 90%
    06:00 +24°C° 0.2 mm 0 m/S 737 mmHg 89%
    07:00 +24°C° 0.2 mm 0 m/S 738 mmHg 88%
    08:00 +25°C° 0.3 mm 0 m/S 738 mmHg 82%
    09:00 +29°C° 0.3 mm 1 m/S 738 mmHg 77%
    10:00 +30°C° 0.3 mm 1 m/S 739 mmHg 71%
    11:00 +32°C° 0.2 mm 1 m/S 738 mmHg 66%
    12:00 +33°C° 0.2 mm 1 m/S 737 mmHg 61%
    13:00 +34°C° 0.2 mm 1 m/S 736 mmHg 56%
    14:00 +34°C° 0.1 mm 1 m/S 736 mmHg 55%
    15:00 +34°C° 0.1 mm 1 m/S 735 mmHg 53%
    16:00 +34°C° 0.1 mm 1 m/S 735 mmHg 52%
    17:00 +33°C° 0.4 mm 1 m/S 735 mmHg 59%
    18:00 +31°C° 0.4 mm 1 m/S 735 mmHg 65%
    19:00 +29°C° 0.4 mm 1 m/S 736 mmHg 71%
    20:00 +29°C° 0.4 mm 1 m/S 736 mmHg 74%
    21:00 +28°C° 0.4 mm 1 m/S 737 mmHg 76%
    22:00 +28°C° 0.4 mm 1 m/S 738 mmHg 78%
    23:00 +27°C° 0.7 mm 1 m/S 738 mmHg 80%

    Morgen, 28 Februar, Freitag

    Zeit Temperatur Niederschläge Wind Luftdruck Luftfeuchtigkeit
    00:00 +27°C° 0.7 mm 1 m/S 737 mmHg 82%
    01:00 +27°C° 0.7 mm 1 m/S 737 mmHg 84%
    02:00 +27°C° 0.8 mm 1 m/S 737 mmHg 85%
    03:00 +26°C° 0.8 mm 1 m/S 736 mmHg 86%
    04:00 +26°C° 0.8 mm 1 m/S 736 mmHg 88%
    05:00 +24°C° 0.4 mm 0 m/S 737 mmHg 88%
    06:00 +24°C° 0.4 mm 0 m/S 737 mmHg 89%
    07:00 +24°C° 0.4 mm 0 m/S 738 mmHg 89%
    08:00 +25°C° 0.3 mm 0 m/S 738 mmHg 87%
    09:00 +27°C° 0.3 mm 1 m/S 738 mmHg 85%
    10:00 +28°C° 0.3 mm 1 m/S 738 mmHg 83%
    11:00 +30°C° 0.2 mm 1 m/S 737 mmHg 75%
    12:00 +31°C° 0.2 mm 1 m/S 736 mmHg 67%
    13:00 +33°C° 0.2 mm 1 m/S 735 mmHg 58%
    14:00 +34°C° 0.1 mm 1 m/S 735 mmHg 57%
    15:00 +34°C° 0.1 mm 1 m/S 734 mmHg 55%
    16:00 +34°C° 0.1 mm 1 m/S 734 mmHg 53%
    17:00 +33°C° 0.2 mm 1 m/S 734 mmHg 59%
    18:00 +31°C° 0.2 mm 1 m/S 735 mmHg 65%
    19:00 +29°C° 0.2 mm 1 m/S 735 mmHg 71%
    20:00 +29°C° 0.5 mm 1 m/S 736 mmHg 74%
    21:00 +28°C° 0.5 mm 1 m/S 737 mmHg 78%
    22:00 +27°C° 0.5 mm 1 m/S 738 mmHg 81%
    23:00 +25°C° 0.6 mm 0 m/S 737 mmHg 83%

    übermorgen, 29 Februar, Samstag

    Zeit Temperatur Niederschläge Wind Luftdruck Luftfeuchtigkeit
    00:00 +25°C° 0.6 mm 0 m/S 737 mmHg 85%
    01:00 +25°C° 0.6 mm 0 m/S 737 mmHg 87%
    02:00 +24°C° 0.7 mm 0 m/S 737 mmHg 87%
    03:00 +24°C° 0.7 mm 0 m/S 736 mmHg 87%
    04:00 +24°C° 0.7 mm 0 m/S 736 mmHg 88%
    05:00 +24°C° 0.7 mm 0 m/S 737 mmHg 87%
    06:00 +25°C° 0.7 mm 0 m/S 737 mmHg 87%
    07:00 +25°C° 0.7 mm 0 m/S 738 mmHg 86%
    08:00 +27°C° 0.3 mm 1 m/S 738 mmHg 83%
    09:00 +28°C° 0.3 mm 1 m/S 738 mmHg 81%
    10:00 +29°C° 0.3 mm 1 m/S 738 mmHg 78%
    11:00 +31°C° 0.2 mm 1 m/S 737 mmHg 71%
    12:00 +32°C° 0.2 mm 1 m/S 736 mmHg 64%
    13:00 +34°C° 0.2 mm 1 m/S 736 mmHg 57%
    14:00 +34°C° 0.1 mm 1 m/S 735 mmHg 55%
    15:00 +35°C° 0.1 mm 1 m/S 734 mmHg 54%
    16:00 +35°C° 0.1 mm 1 m/S 734 mmHg 53%
    17:00 +33°C° 0.2 mm 1 m/S 734 mmHg 59%
    18:00 +31°C° 0.2 mm 1 m/S 735 mmHg 65%
    19:00 +30°C° 0.2 mm 1 m/S 735 mmHg 72%
    20:00 +29°C° 1 mm 1 m/S 736 mmHg 75%
    21:00 +28°C° 1 mm 1 m/S 737 mmHg 79%
    22:00 +28°C° 1 mm 1 m/S 738 mmHg 83%
    23:00 +27°C° 1.2 mm 1 m/S 737 mmHg 84%

    1 März, Sonntag

    Zeit Temperatur Niederschläge Wind Luftdruck Luftfeuchtigkeit
    00:00 +27°C° 1.2 mm 1 m/S 737 mmHg 86%
    01:00 +25°C° 1.2 mm 0 m/S 736 mmHg 87%
    02:00 +25°C° 1.1 mm 0 m/S 736 mmHg 88%
    03:00 +24°C° 1.1 mm 0 m/S 736 mmHg 89%
    04:00 +24°C° 1.1 mm 0 m/S 736 mmHg 89%
    05:00 +24°C° 1.1 mm 0 m/S 737 mmHg 89%
    06:00 +26°C° 1.1 mm 1 m/S 737 mmHg 88%
    07:00 +26°C° 1.1 mm 1 m/S 737 mmHg 88%
    08:00 +27°C° 0.6 mm 1 m/S 737 mmHg 86%
    09:00 +27°C° 0.6 mm 1 m/S 738 mmHg 85%
    10:00 +28°C° 0.6 mm 1 m/S 738 mmHg 83%
    11:00 +29°C° 0.1 mm 1 m/S 737 mmHg 76%
    12:00 +31°C° 0.1 mm 1 m/S 736 mmHg 69%
    13:00 +33°C° 0.1 mm 1 m/S 735 mmHg 62%
    14:00 +33°C° 0 mm 1 m/S 734 mmHg 60%
    15:00 +34°C° 0 mm 1 m/S 734 mmHg 58%
    16:00 +34°C° 0 mm 1 m/S 733 mmHg 56%
    17:00 +32°C° 0.2 mm 1 m/S 733 mmHg 61%
    18:00 +31°C° 0.2 mm 1 m/S 734 mmHg 67%
    19:00 +29°C° 0.2 mm 1 m/S 734 mmHg 72%
    20:00 +29°C° 0.5 mm 1 m/S 735 mmHg 76%
    21:00 +28°C° 0.5 mm 1 m/S 736 mmHg 79%
    22:00 +27°C° 0.5 mm 1 m/S 737 mmHg 83%
    23:00 +27°C° 0.9 mm 1 m/S 737 mmHg 84%

    2 März, Montag

    Zeit Temperatur Niederschläge Wind Luftdruck Luftfeuchtigkeit
    00:00 +25°C° 0.9 mm 0 m/S 736 mmHg 85%
    01:00 +24°C° 0.9 mm 0 m/S 736 mmHg 86%
    02:00 +24°C° 1.2 mm 0 m/S 736 mmHg 87%
    03:00 +24°C° 1.2 mm 0 m/S 736 mmHg 87%
    04:00 +24°C° 1.2 mm 0 m/S 735 mmHg 87%
    05:00 +24°C° 0.3 mm 0 m/S 736 mmHg 87%
    06:00 +24°C° 0.3 mm 0 m/S 736 mmHg 87%
    07:00 +24°C° 0.3 mm 0 m/S 737 mmHg 87%
    08:00 +26°C° 0.4 mm 0 m/S 737 mmHg 82%
    09:00 +29°C° 0.4 mm 1 m/S 737 mmHg 78%
    10:00 +30°C° 0.4 mm 1 m/S 737 mmHg 74%
    11:00 +32°C° 0.1 mm 1 m/S 736 mmHg 67%
    12:00 +33°C° 0.1 mm 1 m/S 735 mmHg 60%
    13:00 +35°C° 0.1 mm 1 m/S 734 mmHg 54%
    14:00 +35°C° 0 mm 1 m/S 734 mmHg 53%
    15:00 +35°C° 0 mm 1 m/S 733 mmHg 52%
    16:00 +35°C° 0 mm 1 m/S 732 mmHg 51%
    17:00 +33°C° 0.1 mm 1 m/S 733 mmHg 57%
    18:00 +32°C° 0.1 mm 1 m/S 734 mmHg 63%
    19:00 +30°C° 0.1 mm 1 m/S 734 mmHg 68%
    20:00 +30°C° 0.4 mm 1 m/S 735 mmHg 72%
    21:00 +29°C° 0.4 mm 1 m/S 736 mmHg 76%
    22:00 +28°C° 0.4 mm 1 m/S 736 mmHg 79%
    23:00 +28°C° 0.4 mm 1 m/S 736 mmHg 81%

    3 März, Dienstag

    Zeit Temperatur Niederschläge Wind Luftdruck Luftfeuchtigkeit
    00:00 +27°C° 0.4 mm 1 m/S 736 mmHg 82%
    01:00 +27°C° 0.4 mm 1 m/S 736 mmHg 84%
    02:00 +26°C° 0.6 mm 1 m/S 735 mmHg 86%
    03:00 +24°C° 0.6 mm 0 m/S 735 mmHg 87%
    04:00 +24°C° 0.6 mm 0 m/S 735 mmHg 89%
    05:00 +24°C° 0.4 mm 0 m/S 735 mmHg 89%
    06:00 +24°C° 0.4 mm 0 m/S 736 mmHg 88%
    07:00 +24°C° 0.4 mm 0 m/S 736 mmHg 88%
    08:00 +28°C° 0.3 mm 1 m/S 736 mmHg 83%
    09:00 +29°C° 0.3 mm 1 m/S 737 mmHg 77%
    10:00 +31°C° 0.3 mm 1 m/S 737 mmHg 71%
    11:00 +32°C° 0.2 mm 1 m/S 736 mmHg 66%
    12:00 +34°C° 0.2 mm 1 m/S 735 mmHg 60%
    13:00 +35°C° 0.2 mm 1 m/S 734 mmHg 54%
    14:00 +35°C° 0 mm 1 m/S 733 mmHg 52%
    15:00 +35°C° 0 mm 1 m/S 733 mmHg 51%
    16:00 +35°C° 0 mm 1 m/S 732 mmHg 50%
    17:00 +34°C° 0.1 mm 1 m/S 733 mmHg 55%
    18:00 +32°C° 0.1 mm 1 m/S 733 mmHg 60%
    19:00 +31°C° 0.1 mm 1 m/S 734 mmHg 65%
    20:00 +30°C° 0.7 mm 1 m/S 735 mmHg 70%
    21:00 +29°C° 0.7 mm 1 m/S 735 mmHg 75%
    22:00 +28°C° 0.7 mm 1 m/S 736 mmHg 79%
    23:00 +28°C° 0.7 mm 1 m/S 736 mmHg 81%
    Mehr zeigen